Wind_Speed
23 22 22 22 22 21 20 18 16 16 15 14 13 12 11 10 9 9 9 10 10 11 12 13 14 13 13 13 13 13 13 13 13 12 12 13 12 12 11 11 10 10
24 23 23 22 22 21 20 18 17 16 15 15 14 12 11 10 9 9 10 10 11 12 13 14 14 13 14 14 13 14 14 14 13 12 12 12 12 12 12 11 10 9
24 23 24 23 22 22 20 19 19 16 16 17 15 12 12 11 10 9 10 12 12 13 13 14 14 13 13 13 13 14 14 14 14 12 12 11 11 11 11 10 10 10
25 24 24 23 23 22 21 20 19 17 17 17 14 12 12 12 12 11 11 13 14 14 14 14 14 14 14 14 14 14 14 13 13 12 12 11 10 10 10 10 10 10
25 25 25 24 23 23 21 20 19 19 18 16 14 13 13 13 13 13 13 14 14 15 15 14 15 15 14 14 15 14 14 13 12 11 11 11 10 10 10 10 10 9
25 25 25 24 23 23 22 19 17 18 18 16 14 14 14 15 14 14 14 15 15 15 15 15 15 15 14 14 15 14 13 13 12 11 11 11 10 10 10 9 9 9
26 26 25 24 24 23 21 20 18 17 17 16 15 16 16 16 15 15 15 15 15 16 15 16 16 15 15 14 14 13 13 12 12 11 11 11 10 10 10 9 8 8
27 26 25 25 25 23 21 21 20 18 18 17 16 17 16 16 16 16 16 16 16 16 16 16 15 15 15 14 14 14 13 13 12 11 12 11 11 10 9 9 9 9
27 26 27 27 27 25 23 22 21 19 18 18 18 18 17 17 17 17 17 17 17 16 16 16 16 15 14 14 15 14 14 13 12 12 12 11 11 10 9 9 8 8
27 27 28 28 27 26 24 23 22 20 18 18 18 18 18 18 18 18 18 18 17 17 17 17 16 16 15 15 15 14 13 13 13 12 12 11 11 10 9 9 8 8
28 29 29 28 28 27 25 23 21 20 19 18 19 19 19 19 19 18 18 18 18 18 17 17 17 16 16 15 15 14 14 14 13 12 12 11 11 10 9 9 8 8
29 30 29 28 28 27 25 24 21 20 20 19 19 20 20 19 19 19 19 18 18 18 18 18 17 17 17 16 15 15 14 14 14 13 12 12 11 10 10 9 8 8
29 30 30 29 28 27 26 24 21 20 20 19 20 20 20 20 20 19 19 19 18 18 18 18 18 17 17 16 16 16 15 15 15 14 13 12 12 11 10 9 9 8
29 29 29 28 29 29 27 23 20 20 20 20 21 21 21 21 20 20 19 19 19 19 18 18 18 18 18 17 17 16 16 16 15 15 14 13 12 11 11 10 9 9
30 29 28 28 29 29 26 23 20 20 21 21 21 21 21 21 20 20 20 19 19 19 19 19 18 18 18 18 18 18 17 17 16 16 15 14 13 12 11 10 10 10
29 29 28 28 29 28 26 24 21 20 21 21 21 21 21 21 20 20 20 20 20 19 19 19 18 18 19 19 19 19 18 17 17 16 15 15 14 13 12 10 9 8
29 29 28 29 28 28 26 25 23 21 21 22 21 21 22 21 21 21 20 20 20 20 20 19 18 19 20 20 19 19 18 18 17 17 15 15 14 14 13 10 8 7
30 28 29 28 28 28 27 25 24 22 22 22 22 22 22 22 21 21 20 20 20 20 20 18 18 21 22 22 20 19 19 18 17 17 16 15 14 13 13 11 8 8
30 29 29 27 27 28 27 26 25 23 22 23 22 22 22 22 22 21 20 21 21 20 20 18 19 22 24 23 22 21 19 17 16 16 16 15 14 13 13 12 10 9
30 28 27 27 27 28 28 27 25 23 24 23 22 22 23 22 22 22 21 21 21 20 20 19 20 23 25 24 23 21 20 18 16 16 15 14 14 13 12 12 11 10
29 28 28 28 27 28 28 27 24 23 24 24 22 23 23 22 22 22 21 20 21 20 19 19 21 22 24 25 23 22 20 17 15 16 15 13 13 13 11 12 12 10
29 29 29 28 28 29 29 27 25 24 23 23 23 22 22 22 21 21 21 20 19 19 18 18 20 20 21 24 25 23 20 15 13 15 14 13 13 12 10 12 12 10
29 29 29 29 28 29 30 27 25 25 23 23 23 23 22 22 22 21 21 20 19 18 18 19 19 17 19 23 26 25 20 13 12 14 14 12 13 13 11 11 12 11
30 29 29 29 28 28 30 27 25 26 26 23 23 24 22 22 21 20 20 20 20 18 17 19 20 18 19 23 27 28 22 14 11 13 13 13 13 13 12 11 13 13
29 29 29 29 27 27 30 27 24 26 25 22 23 24 21 20 22 20 19 21 22 19 17 18 21 20 20 23 28 29 25 17 12 11 13 13 13 14 14 13 14 15
27 28 29 29 27 27 28 27 25 25 24 22 24 23 20 21 23 20 20 23 23 19 17 18 20 21 21 24 28 30 28 22 15 11 12 14 15 15 16 15 14 15
Wind_Direction
173 171 170 167 166 165 164 164 165 167 167 165 164 161 160 157 152 153 151 150 148 143 141 138 133 130 127 127 126 125 123 120 118 116 119 117 111 108 104 102 102 97
173 172 171 167 165 167 167 166 167 167 165 164 162 161 162 158 156 160 155 150 147 144 143 140 135 133 131 130 130 128 126 120 114 115 118 116 113 109 104 102 101 97
172 171 171 168 165 167 169 169 169 167 160 159 160 160 161 162 165 166 159 153 149 145 142 139 135 133 132 131 130 126 122 118 115 116 117 113 112 108 105 104 101 98
171 170 168 166 165 166 166 164 165 164 159 158 163 165 166 168 170 169 163 155 149 145 141 139 135 133 131 130 128 125 122 122 122 122 120 114 113 112 110 107 102 100
170 167 165 163 163 164 163 160 158 157 156 158 164 171 173 172 171 170 163 155 150 145 141 140 138 134 132 131 130 128 125 125 124 125 123 116 115 115 110 106 103 101
169 167 163 161 160 159 162 164 162 160 160 160 166 173 174 173 173 171 163 156 151 149 145 143 140 136 135 134 132 129 128 130 131 129 124 119 118 116 111 109 106 104
169 166 163 162 161 159 163 167 167 165 163 164 170 174 175 175 174 170 164 159 154 152 150 146 142 139 137 135 133 133 134 136 135 132 128 125 121 116 112 113 110 104
167 165 163 162 162 163 167 168 167 164 161 163 171 175 176 176 174 170 165 161 157 155 153 149 146 142 140 139 139 138 139 139 138 136 133 128 123 118 116 116 114 108
165 165 164 161 161 166 169 167 166 163 160 165 171 174 175 175 173 169 165 163 159 157 154 151 148 145 144 145 143 141 141 141 141 139 135 130 126 123 122 119 114 108
167 166 164 162 163 169 170 166 163 159 160 168 172 172 174 174 170 168 166 164 161 159 156 153 151 148 147 146 145 145 145 142 141 140 135 132 131 128 126 123 117 110
169 167 164 164 167 171 171 166 160 157 163 172 173 172 173 171 168 168 166 164 162 161 158 156 154 151 149 148 149 148 146 143 142 141 137 135 133 131 130 125 120 117
169 167 166 167 169 170 167 163 157 157 166 173 173 173 173 169 168 169 167 166 165 163 160 158 155 153 152 151 151 149 147 145 144 142 139 137 134 131 130 129 125 121
168 165 167 171 171 166 163 159 156 160 169 175 175 173 172 169 169 170 168 168 167 164 162 159 156 156 155 153 152 150 148 147 146 143 140 138 137 136 135 133 129 125
168 167 169 172 170 165 161 157 158 166 173 174 174 173 171 171 171 170 170 169 167 164 163 161 159 158 157 155 154 153 151 148 147 146 145 143 142 141 138 135 138 148
169 171 173 171 168 164 160 158 162 171 173 173 174 174 171 172 172 170 170 169 166 165 163 162 162 161 160 159 157 154 152 151 150 150 149 148 146 144 143 146 158 172
168 172 172 168 166 163 160 160 165 171 172 173 175 173 172 174 172 170 172 169 166 166 165 164 166 165 164 163 160 157 154 154 155 155 154 153 152 151 152 159 175 184
171 171 168 164 165 164 161 163 167 171 173 175 175 173 174 175 171 172 173 170 168 168 166 167 170 169 167 164 161 159 158 157 158 159 159 159 159 159 160 166 175 171
174 168 164 163 166 167 165 165 168 172 174 176 176 175 175 174 172 174 173 171 171 170 168 171 175 173 170 166 163 161 160 160 160 162 164 164 165 168 167 166 164 157
172 165 163 165 167 170 169 167 169 174 175 176 177 175 175 174 174 175 174 173 173 170 170 176 178 176 174 170 166 164 160 160 163 165 168 170 172 174 171 168 167 165
168 165 166 167 168 172 172 168 171 177 175 175 177 175 175 176 176 177 176 175 175 173 173 178 179 179 179 174 169 166 162 162 165 169 172 175 177 176 176 175 174 176
170 169 169 171 172 175 172 170 176 178 172 173 178 177 176 178 177 177 176 175 176 174 173 177 179 179 181 179 172 169 168 165 165 172 176 177 177 176 178 181 179 183
173 172 171 173 174 175 173 173 176 173 168 173 178 176 177 178 177 177 177 175 174 174 173 173 173 177 185 185 179 174 173 168 164 173 176 175 178 178 177 183 186 187
174 174 174 174 172 173 175 175 174 171 171 174 176 175 176 177 177 177 177 174 173 175 172 165 168 180 190 191 186 181 178 170 163 173 177 176 181 183 180 185 193 193
173 174 173 172 171 172 174 173 169 168 172 174 175 174 174 177 177 174 175 175 172 173 173 168 175 188 194 193 191 187 183 174 163 175 184 182 183 185 186 192 195 192
173 174 173 171 169 170 173 173 165 162 168 172 173 173 172 175 174 170 173 174 171 177 184 181 183 191 194 194 193 192 190 181 170 182 190 186 187 190 191 200 203 200
174 175 173 170 168 166 168 170 164 162 167 170 170 172 173 173 173 173 175 173 173 182 188 186 189 192 193 194 194 195 195 188 179 188 192 189 196 196 192 200 207 209
Height
796 798 800 802 803 805 807 809 810 812 814 815 817 819 820 821 822 824 825 826 828 829 830 831 831 832 833 834 835 835 836 837 839 840 841 842 844 845 845 846 847 847
795 797 799 800 802 804 806 808 810 811 813 815 817 819 820 821 823 824 826 827 828 829 830 831 832 833 833 834 835 836 837 838 840 841 842 844 845 846 846 847 848 848
794 796 797 799 801 803 806 808 810 811 813 814 816 818 820 822 824 825 826 827 828 830 830 831 832 833 834 834 836 837 838 839 841 843 844 845 846 847 847 848 849 849
792 794 796 798 800 803 805 807 809 811 812 814 816 818 820 822 824 826 827 828 828 830 831 832 833 833 834 835 836 838 839 840 842 844 845 846 847 848 848 849 849 850
790 793 795 797 799 802 804 806 808 809 812 814 816 818 821 822 824 826 827 828 829 830 831 832 833 834 835 836 837 838 840 841 843 845 846 846 848 849 849 849 850 852
788 791 793 796 798 800 803 805 807 809 811 813 815 818 821 822 824 826 827 828 829 830 831 832 833 834 835 836 838 839 841 843 845 846 846 847 848 849 850 850 851 852
786 789 791 794 796 799 802 805 807 809 811 813 815 818 820 822 824 825 826 828 829 830 831 832 833 834 836 837 838 840 841 843 845 846 847 848 849 849 850 851 852 853
785 788 790 792 795 799 803 805 807 809 810 812 815 818 820 822 823 825 826 827 828 830 831 832 833 834 836 837 838 840 842 844 845 846 847 848 849 850 851 852 853 853
784 787 790 792 795 799 802 805 807 808 810 812 815 817 819 821 823 824 826 827 828 830 831 832 833 834 836 837 838 840 842 844 845 846 847 848 849 850 851 852 853 853
784 787 789 792 794 799 802 804 806 807 809 812 814 817 819 821 822 824 825 826 828 829 830 832 833 834 836 837 839 841 842 843 844 846 847 848 849 851 852 853 853 854
784 786 789 791 795 798 801 803 805 806 809 812 814 816 818 820 821 823 825 826 827 829 830 831 832 834 835 837 839 840 841 843 844 846 847 848 849 851 852 853 853 854
783 785 788 791 795 798 799 802 803 805 808 811 813 815 817 819 821 822 824 825 827 828 829 830 832 834 835 837 838 840 841 843 844 845 847 848 849 851 852 853 853 854
782 785 788 791 794 796 798 800 802 805 808 810 812 815 816 818 820 821 823 825 826 827 829 830 831 833 835 836 838 839 840 842 843 845 847 848 849 850 851 852 853 853
781 784 788 791 793 795 797 799 802 805 807 809 812 814 815 817 819 821 822 824 825 827 828 829 831 832 834 835 837 838 840 841 843 845 846 848 849 850 851 852 852 852
780 784 788 790 792 793 795 798 801 804 806 809 811 813 815 816 818 820 822 823 825 826 827 829 830 832 833 835 836 838 839 841 843 844 846 847 848 849 851 851 851 851
780 784 786 788 790 792 794 797 800 803 805 808 810 811 813 815 817 819 821 822 823 825 827 828 830 831 832 834 835 837 839 840 842 844 845 846 847 849 850 850 850 851
779 782 784 786 788 791 793 796 799 802 804 807 809 810 812 814 816 818 819 821 822 824 826 827 828 830 832 833 835 837 838 840 841 843 844 846 847 848 849 849 850 851
778 780 781 784 786 789 792 795 798 800 803 805 807 809 811 812 814 817 818 820 821 823 825 826 827 829 831 833 834 836 838 839 841 842 844 845 847 848 848 849 849 851
775 777 779 782 784 788 791 793 796 799 801 804 806 807 809 811 813 815 816 818 820 822 823 825 826 828 830 832 834 835 837 839 841 842 843 845 846 847 848 849 849 851
773 774 777 780 783 787 789 791 795 797 799 802 804 806 808 810 811 813 815 817 818 821 822 823 825 827 829 832 834 835 837 839 840 842 843 845 846 847 848 849 850 851
770 773 776 779 782 785 787 790 793 795 797 800 803 804 806 808 810 812 814 815 817 820 821 822 825 827 830 832 834 835 837 838 840 841 843 844 845 846 847 848 849 850
768 771 774 777 780 783 785 788 791 793 795 798 801 803 805 807 809 811 812 814 817 819 820 822 826 828 830 833 835 836 837 838 839 841 842 843 845 845 846 847 848 849
766 769 772 775 778 780 782 785 788 790 794 797 800 802 804 806 808 809 811 814 816 818 819 822 826 829 830 832 834 836 837 838 839 840 842 843 844 845 846 846 847 848
764 767 770 773 775 777 780 783 786 789 793 796 798 800 803 805 807 809 811 813 815 817 818 820 824 827 829 831 833 834 836 837 839 840 841 842 843 844 845 846 846 847
762 765 768 770 773 775 778 781 784 787 791 795 797 800 802 804 806 809 811 811 813 816 817 818 821 824 826 829 831 833 835 836 838 839 840 841 842 843 844 844 844 845
760 764 766 768 771 773 776 780 783 786 790 794 796 799 802 803 805 807 809 811 813 815 815 817 819 821 824 827 829 831 833 835 836 838 839 840 840 841 842 843 843 844